| time (UTC) | temp F | wind direction | speed MPH | gust MPH | rain 1hr in | rain 24hr in | rain mn in | humidity % | barometer mb |
| 20260502193022 | 56 | 300 | 7.0 | 13.0 | 0.00 | 0.28 | 0.01 | 55 | 1016.3 |
| 20260502192026 | 55 | 307 | 6.0 | 10.0 | 0.00 | 0.28 | 0.01 | 55 | 1016.4 |
| 20260502191033 | 54 | 311 | 5.0 | 7.0 | 0.00 | 0.28 | 0.01 | 56 | 1016.6 |
| 20260502190039 | 54 | 295 | 5.0 | 11.0 | 0.00 | 0.28 | 0.01 | 55 | 1016.6 |
| 20260502185043 | 55 | 306 | 3.0 | 5.0 | 0.00 | 0.28 | 0.01 | 52 | 1016.7 |
| 20260502184028 | 55 | 286 | 3.0 | 6.0 | 0.00 | 0.28 | 0.01 | 54 | 1016.7 |
| 20260502182019 | 54 | 5.0 | 5.0 | 0.00 | 0.28 | 0.01 | 58 | 1017.0 | |
| 20260502181024 | 54 | 268 | 4.0 | 5.0 | 0.00 | 0.28 | 0.01 | 56 | 1016.9 |
| 20260502164046 | 56 | 271 | 6.0 | 11.0 | 0.00 | 0.28 | 0.01 | 52 | 1017.3 |
| 20260502163017 | 54 | 287 | 3.0 | 5.0 | 0.00 | 0.28 | 0.01 | 52 | 1017.3 |
| 20260502162023 | 54 | 253 | 4.0 | 5.0 | 0.00 | 0.28 | 0.01 | 54 | 1017.3 |
| 20260502161021 | 55 | 314 | 4.0 | 5.0 | 0.00 | 0.28 | 0.01 | 53 | 1017.6 |
| 20260502152033 | 56 | 328 | 4.0 | 7.0 | 0.00 | 0.28 | 0.01 | 52 | 1017.6 |
| 20260502151020 | 56 | 275 | 6.0 | 10.0 | 0.00 | 0.28 | 0.01 | 57 | 1017.6 |
| 20260502123023 | 44 | 305 | 3.0 | 7.0 | 0.00 | 0.28 | 0.01 | 82 | 1017.9 |
| 20260502122028 | 44 | 289 | 3.0 | 5.0 | 0.00 | 0.28 | 0.01 | 83 | 1018.1 |
| 20260502121037 | 44 | 293 | 3.0 | 6.0 | 0.00 | 0.28 | 0.01 | 83 | 1018.1 |
| 20260502115024 | 42 | 274 | 3.0 | 5.0 | 0.00 | 0.28 | 0.01 | 87 | 1018.1 |
| 20260502114029 | 42 | 261 | 1.0 | 3.0 | 0.00 | 0.28 | 0.01 | 90 | 1018.1 |
| 20260502113037 | 41 | 266 | 2.0 | 4.0 | 0.00 | 0.28 | 0.01 | 91 | 1017.9 |
| 20260502112042 | 40 | 227 | 1.0 | 2.0 | 0.00 | 0.28 | 0.01 | 95 | 1018.1 |
| 20260502111025 | 39 | 231 | 2.0 | 4.0 | 0.00 | 0.28 | 0.01 | 96 | 1018.1 |
| 20260502110032 | 38 | 275 | 1.0 | 4.0 | 0.00 | 0.28 | 0.01 | 97 | 1018.1 |
| 20260502105017 | 38 | 275 | 2.0 | 3.0 | 0.00 | 0.28 | 0.01 | 99 | 1018.1 |
| 20260502104023 | 37 | 294 | 1.0 | 2.0 | 0.00 | 0.28 | 0.01 | 98 | 1018.1 |
| 20260502103026 | 37 | 0.0 | 2.0 | 0.00 | 0.28 | 0.01 | 98 | 1018.1 | |
| 20260502102032 | 37 | 270 | 0.0 | 1.0 | 0.00 | 0.28 | 0.01 | 98 | 1017.9 |
| 20260502101018 | 38 | 181 | 2.0 | 2.0 | 0.00 | 0.28 | 0.01 | 98 | 1017.8 |
| 20260502091028 | 42 | 286 | 3.0 | 5.0 | 0.00 | 0.28 | 0.01 | 92 | 1017.4 |
| 20260502071032 | 45 | 272 | 3.0 | 7.0 | 0.00 | 0.28 | 0.01 | 86 | 1016.5 |
| 20260502070019 | 45 | 264 | 4.0 | 6.0 | 0.00 | 0.28 | 0.01 | 86 | 1016.4 |
| 20260502065025 | 44 | 247 | 4.0 | 6.0 | 0.00 | 0.28 | 0.01 | 88 | 1016.2 |
| 20260502064028 | 45 | 205 | 1.0 | 3.0 | 0.00 | 0.28 | 0.01 | 87 | 1016.1 |
| 20260502063033 | 45 | 245 | 4.0 | 5.0 | 0.00 | 0.28 | 0.01 | 85 | 1016.2 |
| 20260502062020 | 45 | 245 | 4.0 | 6.0 | 0.00 | 0.28 | 0.01 | 86 | 1016.3 |
| 20260502061025 | 46 | 236 | 4.0 | 7.0 | 0.00 | 0.28 | 0.01 | 86 | 1016.3 |
| 20260502060030 | 46 | 237 | 4.0 | 6.0 | 0.00 | 0.28 | 0.01 | 85 | 1016.2 |
| 20260502055016 | 47 | 234 | 5.0 | 7.0 | 0.00 | 0.28 | 0.01 | 85 | 1016.2 |
| 20260502054022 | 47 | 243 | 6.0 | 8.0 | 0.00 | 0.28 | 0.01 | 86 | 1016.2 |
| 20260502053025 | 48 | 244 | 7.0 | 9.0 | 0.01 | 0.28 | 0.01 | 86 | 1016.1 |
| 20260502052030 | 48 | 234 | 5.0 | 7.0 | 0.01 | 0.28 | 0.01 | 88 | 1016.4 |
| 20260502051017 | 49 | 248 | 5.0 | 8.0 | 0.01 | 0.28 | 0.01 | 86 | 1016.3 |
| 20260502045026 | 49 | 266 | 5.0 | 7.0 | 0.01 | 0.28 | 0.01 | 92 | 1016.4 |
| 20260502044052 | 48 | 251 | 6.0 | 9.0 | 0.01 | 0.28 | 0.01 | 96 | 1016.5 |
| 20260502043018 | 48 | 245 | 3.0 | 5.0 | 0.00 | 0.27 | 0.00 | 98 | 1016.3 |
| 20260502042023 | 48 | 212 | 2.0 | 4.0 | 0.00 | 0.27 | 0.00 | 97 | 1016.3 |
| 20260502041027 | 48 | 207 | 2.0 | 4.0 | 0.27 | 0.27 | 0.00 | 98 | 1016.3 |
| 20260502040032 | 48 | 190 | 2.0 | 4.0 | 0.27 | 0.27 | 0.00 | 98 | 1016.1 |
| 20260502035019 | 48 | 216 | 1.0 | 3.0 | 0.27 | 0.27 | 0.27 | 98 | 1016.1 |
| 20260502034043 | 48 | 190 | 1.0 | 2.0 | 0.27 | 0.27 | 0.27 | 98 | 1016.0 |
| 20260502033048 | 48 | 218 | 2.0 | 3.0 | 0.27 | 0.27 | 0.27 | 95 | 1016.0 |
| 20260502032033 | 49 | 214 | 2.0 | 3.0 | 0.27 | 0.27 | 0.27 | 96 | 1016.1 |
| 20260502031019 | 49 | 204 | 1.0 | 2.0 | 0.00 | 0.00 | 0.00 | 99 | 1016.0 |
| 20260502030044 | 49 | 105 | 1.0 | 3.0 | 0.00 | 0.00 | 0.00 | 99 | 1016.0 |
| 20260502025029 | 49 | 216 | 1.0 | 4.0 | 0.00 | 0.00 | 0.00 | 97 | 1016.1 |
| 20260502024016 | 50 | 153 | 1.0 | 2.0 | 0.00 | 0.00 | 0.00 | 95 | 1016.2 |
| 20260502023022 | 51 | 0.0 | 0.0 | 0.00 | 0.00 | 0.00 | 91 | 1016.0 | |
| 20260502022025 | 51 | 203 | 1.0 | 3.0 | 0.00 | 0.00 | 0.00 | 88 | 1016.1 |
| 20260502021110 | 51 | 113 | 0.0 | 2.0 | 0.00 | 0.00 | 0.00 | 88 | 1015.8 |
| 20260502020017 | 51 | 171 | 1.0 | 2.0 | 0.00 | 0.00 | 0.00 | 88 | 1016.0 |
| 20260502015021 | 51 | 0.0 | 0.0 | 0.00 | 0.00 | 0.00 | 88 | 1015.9 | |
| 20260502014026 | 51 | 338 | 0.0 | 2.0 | 0.00 | 0.00 | 0.00 | 88 | 1015.7 |
| 20260502013031 | 51 | 76 | 2.0 | 4.0 | 0.00 | 0.00 | 0.00 | 88 | 1015.6 |
| 20260502012018 | 50 | 18 | 3.0 | 6.0 | 0.00 | 0.00 | 0.00 | 91 | 1015.1 |
| 20260502011023 | 49 | 17 | 1.0 | 3.0 | 0.00 | 0.00 | 0.00 | 95 | 1014.7 |
| 20260502010027 | 49 | 259 | 2.0 | 2.0 | 0.00 | 0.00 | 0.00 | 95 | 1014.2 |
| 20260502005046 | 50 | 0.0 | 0.0 | 0.00 | 0.00 | 0.00 | 93 | 1014.1 | |
| 20260502004100 | 50 | 173 | 1.0 | 2.0 | 0.00 | 0.00 | 0.00 | 93 | 1013.9 |
| 20260502003023 | 51 | 225 | 1.0 | 2.0 | 0.00 | 0.00 | 0.00 | 91 | 1013.7 |
| 20260502002042 | 51 | 140 | 2.0 | 3.0 | 0.00 | 0.00 | 0.00 | 89 | 1013.7 |
| 20260502001021 | 52 | 0.0 | 0.0 | 0.00 | 0.00 | 0.00 | 88 | 1013.5 | |
| 20260502000019 | 53 | 0.0 | 0.0 | 0.00 | 0.00 | 0.00 | 82 | 1013.2 | |
| 20260501235019 | 55 | 0.0 | 0.0 | 0.00 | 0.00 | 0.00 | 81 | 1013.1 | |
| 20260501234017 | 55 | 176 | 1.0 | 3.0 | 0.00 | 0.00 | 0.00 | 80 | 1013.1 |
| 20260501233015 | 56 | 160 | 2.0 | 3.0 | 0.00 | 0.00 | 0.00 | 79 | 1013.3 |
| 20260501232020 | 56 | 174 | 3.0 | 4.0 | 0.00 | 0.00 | 0.00 | 80 | 1013.3 |
| 20260501231025 | 56 | 174 | 3.0 | 4.0 | 0.00 | 0.00 | 0.00 | 79 | 1013.5 |
| 20260501230030 | 56 | 167 | 3.0 | 4.0 | 0.00 | 0.00 | 0.00 | 78 | 1013.5 |
| 20260501225016 | 57 | 162 | 2.0 | 4.0 | 0.00 | 0.00 | 0.00 | 79 | 1013.5 |
| 20260501224022 | 57 | 153 | 1.0 | 3.0 | 0.00 | 0.00 | 0.00 | 80 | 1013.7 |
| 20260501223047 | 57 | 183 | 2.0 | 3.0 | 0.00 | 0.00 | 0.00 | 76 | 1014.0 |
| 20260501222032 | 57 | 200 | 2.0 | 3.0 | 0.00 | 0.00 | 0.00 | 73 | 1014.4 |
| 20260501221017 | 58 | 246 | 4.0 | 7.0 | 0.00 | 0.00 | 0.00 | 70 | 1014.2 |
| 20260501220022 | 57 | 255 | 4.0 | 8.0 | 0.00 | 0.00 | 0.00 | 68 | 1013.9 |
| 20260501215027 | 58 | 231 | 7.0 | 9.0 | 0.00 | 0.00 | 0.00 | 66 | 1013.6 |
| 20260501214031 | 59 | 172 | 5.0 | 11.0 | 0.00 | 0.00 | 0.00 | 64 | 1013.5 |
| 20260501213018 | 60 | 311 | 3.0 | 7.0 | 0.00 | 0.00 | 0.00 | 58 | 1013.5 |
| 20260501212023 | 61 | 222 | 2.0 | 3.0 | 0.00 | 0.00 | 0.00 | 57 | 1013.3 |
| 20260501211029 | 61 | 213 | 3.0 | 5.0 | 0.00 | 0.00 | 0.00 | 57 | 1013.2 |
| 20260501210033 | 61 | 208 | 3.0 | 4.0 | 0.00 | 0.00 | 0.00 | 57 | 1013.2 |
| 20260501205019 | 61 | 237 | 3.0 | 4.0 | 0.00 | 0.00 | 0.00 | 56 | 1013.2 |
| 20260501204024 | 61 | 234 | 5.0 | 9.0 | 0.00 | 0.00 | 0.00 | 57 | 1013.2 |
| 20260501203050 | 62 | 239 | 8.0 | 13.0 | 0.00 | 0.00 | 0.00 | 54 | 1013.3 |
| 20260501202016 | 65 | 229 | 5.0 | 8.0 | 0.00 | 0.00 | 0.00 | 53 | 1013.2 |
| 20260501201021 | 65 | 193 | 6.0 | 12.0 | 0.00 | 0.00 | 0.00 | 53 | 1013.5 |
| 20260501200025 | 64 | 214 | 5.0 | 8.0 | 0.00 | 0.00 | 0.00 | 52 | 1013.7 |
| 20260501195130 | 66 | 258 | 7.0 | 12.0 | 0.00 | 0.00 | 0.00 | 50 | 1013.8 |
| 20260501194016 | 65 | 233 | 7.0 | 10.0 | 0.00 | 0.00 | 0.00 | 50 | 1013.8 |